FW0574 Weather Reports


time (UTC)temp
C
wind
direction
speed
KPH
gust
KPH
rain 1hr
cm
rain 24hr
cm
rain mn
cm
humidity
%
barometer
mb
20260502224047 25 0 4.8 9.7 0.00 0.00 0.00 50 1006.3
20260502223046 26 23 4.8 12.9 0.00 0.00 0.00 50 1006.6
20260502222548 26 225 3.2 4.8 0.00 0.00 0.00 50 1006.6
20260502222040 25 248 3.2 14.5 0.00 0.00 0.00 50 1006.6
20260502221536 25 270 6.4 14.5 0.00 0.00 0.00 53 1007.0
20260502221035 25 315 8.0 11.3 0.00 0.00 0.00 50 1007.0
20260502220537 25 180 4.8 11.3 0.00 0.00 0.00 50 1007.0
20260502220036 26 293 6.4 11.3 0.00 0.00 0.00 49 1007.0
20260502215535 26 293 3.2 9.7 0.00 0.00 0.00 48 1007.0
20260502215038 26 248 3.2 9.7 0.00 0.00 0.00 50 1007.3
20260502214534 26 203 3.2 8.0 0.00 0.00 0.00 48 1007.3
20260502214035 26 0 3.2 6.4 0.00 0.00 0.00 48 1007.3
20260502213531 26 338 3.2 11.3 0.00 0.00 0.00 49 1007.3
20260502213028 25 248 4.8 11.3 0.00 0.00 0.00 53 1007.3
20260502212531 25 293 4.8 11.3 0.00 0.00 0.00 50 1007.3
20260502212025 25 270 6.4 11.3 0.00 0.00 0.00 50 1007.3
20260502211527 26 248 4.8 11.3 0.00 0.00 0.00 49 1007.3
20260502211028 26 270 4.8 11.3 0.00 0.00 0.00 49 1007.3
20260502210528 26 293 4.8 8.0 0.00 0.00 0.00 48 1007.3
20260502210027 26 270 3.2 6.4 0.00 0.00 0.00 49 1007.3
20260502205530 26 270 3.2 8.0 0.00 0.00 0.00 49 1007.7
20260502205027 25 23 4.8 9.7 0.00 0.00 0.00 50 1007.7
20260502204526 26 338 4.8 8.0 0.00 0.00 0.00 48 1007.7
20260502203523 25 180 4.8 8.0 0.00 0.00 0.00 50 1007.7
20260502203023 25 135 3.2 6.4 0.00 0.00 0.00 50 1007.7
20260502202025 24 0 3.2 9.7 0.00 0.00 0.00 51 1008.0
20260502201522 24 225 4.8 9.7 0.00 0.00 0.00 51 1008.0
20260502201021 24 45 3.2 6.4 0.00 0.00 0.00 53 1008.0
20260502200525 23 315 4.8 6.4 0.00 0.00 0.00 54 1008.3
20260502200022 24 315 3.2 6.4 0.00 0.00 0.00 53 1008.3
20260502195521 23 270 3.2 6.4 0.00 0.00 0.00 55 1008.3
20260502194519 22 315 4.8 9.7 0.00 0.00 0.00 56 1008.7
20260502193515 23 293 4.8 9.7 0.00 0.00 0.00 55 1008.7
20260502193015 23 338 4.8 9.7 0.00 0.00 0.00 56 1008.7
20260502192516 22 315 4.8 8.0 0.00 0.00 0.00 58 1009.1
20260502191513 21 270 4.8 9.7 0.00 0.00 0.00 61 1008.7
20260502191009 21 203 6.4 9.7 0.00 0.00 0.00 61 1009.1
20260502190009 20 0 4.8 8.0 0.00 0.00 0.00 63 1009.1
20260502185506 20 270 3.2 6.4 0.00 0.00 0.00 63 1009.1
20260502185007 20 203 4.8 8.0 0.00 0.00 0.00 65 1009.1
20260502184506 19 0 4.8 9.7 0.00 0.00 0.00 66 1009.1
20260502184001 19 293 6.4 9.7 0.00 0.00 0.00 65 1009.1
20260502183504 20 23 3.2 8.0 0.00 0.00 0.00 65 1009.1
20260502183000 19 270 4.8 8.0 0.00 0.00 0.00 66 1009.1
20260502182500 20 23 4.8 8.0 0.00 0.00 0.00 63 1009.1
20260502181959 20 338 3.2 4.8 0.00 0.00 0.00 63 1009.1
20260502181500 20 270 1.6 4.8 0.00 0.00 0.00 63 1009.1
20260502180959 20 270 3.2 4.8 0.00 0.00 0.00 63 1009.1
20260502180456 20 23 3.2 4.8 0.00 0.00 0.00 63 1009.1
20260502170450 18 113 3.2 6.4 0.00 0.00 0.00 70 1009.1
20260502163947 16 315 3.2 6.4 0.00 0.00 0.00 76 1009.1
20260502161946 16 338 1.6 6.4 0.00 0.00 0.00 81 1009.1
20260502161447 15 270 3.2 6.4 0.00 0.00 0.00 83 1009.1
20260502160946 15 270 1.6 4.8 0.00 0.00 0.00 85 1009.1
20260502160448 15 315 1.6 4.8 0.00 0.00 0.00 85 1009.1
20260502151441 13 338 3.2 6.4 0.00 0.00 0.00 90 1008.3
20260502150938 13 0 1.6 4.8 0.00 0.00 0.00 90 1008.3
20260502150434 13 0 3.2 4.8 0.00 0.00 0.00 90 1008.3
20260502130419 13 158 1.6 3.2 0.00 0.00 0.00 90 1007.7
20260502123420 13 270 0.0 1.6 0.00 0.00 0.00 91 1007.3
20260502122916 13 270 0.0 1.6 0.00 0.00 0.00 91 1007.3
20260502122416 13 315 0.0 1.6 0.00 0.00 0.00 91 1007.3
20260502121916 13 270 0.0 1.6 0.00 0.00 0.00 91 1007.3
20260502121415 13 23 0.0 3.2 0.00 0.00 0.00 91 1007.3
20260502120412 13 248 0.0 1.6 0.00 0.00 0.00 91 1007.3
20260502115909 13 338 0.0 3.2 0.00 0.00 0.00 91 1007.3
20260502115411 13 270 0.0 3.2 0.00 0.00 0.00 91 1007.3
20260502114909 13 315 1.6 3.2 0.00 0.00 0.00 91 1007.7
20260502114412 13 315 0.0 1.6 0.00 0.00 0.00 91 1007.3
20260502113911 13 270 0.0 1.6 0.00 0.00 0.00 91 1007.7
20260502113409 13 248 0.0 1.6 0.00 0.00 0.00 91 1007.7
20260502112908 13 0 0.0 1.6 0.00 0.00 0.00 91 1007.7
20260502112407 13 270 0.0 1.6 0.00 0.00 0.00 91 1007.3
20260502111409 13 270 1.6 4.8 0.00 0.00 0.00 91 1007.3
20260502110910 13 45 1.6 4.8 0.00 0.00 0.00 91 1007.3
20260502105912 13 270 0.0 3.2 0.00 0.00 0.00 91 1007.3
20260502105410 13 270 1.6 3.2 0.00 0.00 0.00 91 1007.3
20260502104910 13 270 1.6 3.2 0.00 0.00 0.00 90 1007.3
20260502104410 13 270 1.6 3.2 0.00 0.00 0.00 90 1007.3
20260502103909 13 293 0.0 3.2 0.00 0.00 0.00 90 1007.7
20260502102907 13 293 0.0 3.2 0.00 0.00 0.00 90 1007.7
20260502101911 13 293 0.0 3.2 0.00 0.00 0.00 90 1007.7
20260502100909 13 270 0.0 1.6 0.00 0.00 0.00 90 1007.7
20260502100409 13 270 0.0 4.8 0.00 0.00 0.00 90 1007.7
20260502091352 13 270 1.6 3.2 0.00 0.00 0.00 90 1008.0
20260502090851 13 270 1.6 3.2 0.00 0.00 0.00 90 1008.0
20260502090351 13 270 3.2 3.2 0.00 0.00 0.00 90 1008.0
20260502071330 13 293 1.6 3.2 0.00 0.00 0.00 88 1008.7
20260502065805 13 293 1.6 4.8 0.00 0.00 0.00 90 1008.7
20260502065305 13 270 3.2 4.8 0.00 0.00 0.00 88 1008.7
20260502064802 13 293 3.2 4.8 0.00 0.00 0.00 88 1008.7
20260502064302 13 270 0.0 3.2 0.00 0.00 0.00 88 1008.7
20260502063802 13 270 1.6 4.8 0.00 0.00 0.00 88 1008.7
20260502063302 13 270 3.2 4.8 0.00 0.00 0.00 88 1008.7
20260502062259 13 293 3.2 4.8 0.00 0.00 0.00 88 1008.7
20260502061757 13 293 3.2 8.0 0.00 0.00 0.00 88 1008.7
20260502060758 13 293 1.6 4.8 0.00 0.00 0.00 88 1008.7
20260502060257 13 293 3.2 4.8 0.00 0.00 0.00 88 1008.7
20260502055755 13 293 3.2 4.8 0.00 0.00 0.00 88 1009.1
20260502054754 13 225 3.2 3.2 0.00 0.00 0.00 88 1009.1
20260502053253 13 225 3.2 6.4 0.00 0.00 0.00 90 1009.1
20260502052753 13 158 3.2 6.4 0.00 0.00 0.00 90 1009.1
20260502052251 13 270 4.8 6.4 0.00 0.00 0.00 91 1009.1
20260502051751 13 315 1.6 4.8 0.00 0.00 0.00 91 1008.7
20260502051248 13 270 1.6 4.8 0.00 0.00 0.00 91 1009.1
20260502050742 13 293 3.2 6.4 0.00 0.00 0.00 91 1009.1
20260502050244 13 270 3.2 8.0 0.00 0.00 0.00 91 1009.1
20260502045743 13 270 1.6 8.0 0.00 0.00 0.00 91 1009.1
20260502045242 13 225 3.2 6.4 0.00 0.00 0.00 91 1009.1
20260502044743 13 270 3.2 4.8 0.00 0.00 0.00 91 1008.7
20260502044236 13 270 3.2 4.8 0.00 0.00 0.00 91 1008.7
20260502042735 13 270 0.0 4.8 0.00 0.00 0.00 88 1008.7
20260502042234 13 270 1.6 6.4 0.00 0.00 0.00 90 1008.7
20260502041734 13 270 1.6 6.4 0.00 0.00 0.00 88 1008.3
20260502041234 14 293 0.0 1.6 0.00 0.00 0.00 86 1008.3
20260502040234 14 270 0.0 0.0 0.00 0.00 0.00 86 1008.3
20260502035734 14 270 0.0 1.6 0.00 0.00 0.00 85 1008.3
20260502035233 14 270 0.0 1.6 0.00 0.00 0.00 86 1008.3
20260502034735 14 270 0.0 4.8 0.00 0.00 0.00 86 1008.3
20260502034234 14 293 3.2 6.4 0.00 0.00 0.00 86 1008.0
20260502033735 14 225 3.2 8.0 0.00 0.00 0.00 86 1008.3
20260502033235 14 270 4.8 8.0 0.00 0.00 0.00 86 1008.3
20260502032736 15 293 1.6 6.4 0.00 0.00 0.00 86 1008.0
20260502032233 15 270 1.6 6.4 0.00 0.00 0.00 83 1008.0
20260502031733 15 293 3.2 8.0 0.00 0.00 0.00 83 1008.0
20260502030234 15 270 3.2 9.7 0.00 0.00 0.00 81 1008.0
20260502025735 16 338 3.2 9.7 0.00 0.00 0.00 80 1007.7
20260502025233 16 270 4.8 9.7 0.00 0.00 0.00 79 1007.7
20260502024731 16 315 1.6 6.4 0.00 0.00 0.00 78 1007.7
20260502024232 17 270 1.6 8.0 0.00 0.00 0.00 75 1007.7
20260502023731 17 270 3.2 8.0 0.00 0.00 0.00 75 1007.3
20260502023230 17 270 3.2 8.0 0.00 0.00 0.00 75 1007.3
20260502022732 18 248 3.2 8.0 0.00 0.00 0.00 73 1007.3
20260502022229 18 270 3.2 8.0 0.00 0.00 0.00 70 1007.3
20260502021731 18 293 3.2 9.7 0.00 0.00 0.00 69 1007.3
20260502021227 19 248 4.8 9.7 0.00 0.00 0.00 68 1007.3
20260502020727 20 270 1.6 9.7 0.00 0.00 0.00 65 1007.3
20260502020228 20 293 3.2 9.7 0.00 0.00 0.00 65 1007.3
20260502015726 20 248 3.2 8.0 0.00 0.00 0.00 65 1007.0
20260502015227 20 270 1.6 8.0 0.00 0.00 0.00 65 1007.0
20260502014725 21 270 1.6 8.0 0.00 0.00 0.00 63 1007.0
20260502013725 21 225 3.2 9.7 0.00 0.00 0.00 63 1007.0
20260502013225 21 248 4.8 9.7 0.00 0.00 0.00 61 1007.0
20260502012725 21 270 3.2 8.0 0.00 0.00 0.00 61 1007.0
20260502011722 21 270 6.4 11.3 0.00 0.00 0.00 61 1007.0
20260502011220 22 293 3.2 11.3 0.00 0.00 0.00 59 1006.6
20260502010720 22 338 4.8 9.7 0.00 0.00 0.00 58 1007.0
20260502010218 23 293 3.2 11.3 0.00 0.00 0.00 58 1007.0
20260502005715 23 23 4.8 11.3 0.00 0.00 0.00 58 1006.6
20260502004715 23 293 3.2 11.3 0.00 0.00 0.00 58 1006.6
20260502003716 23 293 6.4 9.7 0.00 0.00 0.00 56 1006.6
20260502003216 24 293 6.4 9.7 0.00 0.00 0.00 54 1006.6
20260502002216 26 225 1.6 6.4 0.00 0.00 0.00 51 1006.6
20260502001716 26 270 1.6 6.4 0.00 0.00 0.00 51 1006.6
20260502001213 26 293 3.2 6.4 0.00 0.00 0.00 51 1006.6
20260502000712 26 270 3.2 9.7 0.00 0.00 0.00 53 1006.6
20260501235711 25 270 3.2 8.0 0.00 0.00 0.00 53 1006.6
20260501233709 26 270 3.2 8.0 0.00 0.00 0.00 50 1007.3
20260501233209 27 225 3.2 6.4 0.00 0.00 0.00 50 1007.0
20260501232209 27 248 6.4 11.3 0.00 0.00 0.00 50 1007.3
20260501231707 27 270 3.2 9.7 0.00 0.00 0.00 50 1007.3
20260501231206 27 315 1.6 4.8 0.00 0.00 0.00 49 1007.3
20260501230705 27 225 3.2 4.8 0.00 0.00 0.00 50 1007.3
20260501230203 26 270 3.2 9.7 0.00 0.00 0.00 51 1007.3
20260501225704 26 338 4.8 9.7 0.00 0.00 0.00 51 1007.7
20260501225158 26 270 6.4 9.7 0.00 0.00 0.00 50 1007.7
20260501224657 27 270 4.8 9.7 0.00 0.00 0.00 49 1007.7